EW8310 Weather Reports


Display with metric or nautical units.
time (UTC)temp
F
wind
direction
speed
MPH
gust
MPH
rain 1hr
in
rain 24hr
in
rain mn
in
humidity
%
barometer
mb
20260902094631 76 58 0.0 0.0 0.00 0.00 0.00 63 1012.0
20260902094131 76 87 0.0 3.0 0.00 0.00 0.00 64 1012.1
20260902093855 76 49 0.0 3.0 0.00 0.00 0.00 65 1012.1
20260902093131 76 32 0.0 3.0 0.00 0.00 0.00 66 1012.1
20260902092632 76 39 0.0 0.0 0.00 0.00 0.00 67 1012.1
20260902092131 76 39 0.0 0.0 0.00 0.00 0.00 66 1012.2
20260902091631 76 39 0.0 1.0 0.00 0.00 0.00 65 1012.2
20260902091131 75 41 0.0 1.0 0.00 0.00 0.00 66 1012.1
20260902090851 74 357 0.0 0.0 0.00 0.00 0.00 67 1012.1
20260902090130 75 357 0.0 0.0 0.00 0.00 0.00 65 1012.1
20260902085630 76 85 0.0 0.0 0.00 0.00 0.00 63 1012.1
20260902085130 76 85 0.0 0.0 0.00 0.00 0.00 62 1012.0
20260902084630 77 85 0.0 0.0 0.00 0.00 0.00 62 1012.0
20260902084129 77 85 0.0 0.0 0.00 0.00 0.00 61 1011.8
20260902083630 77 85 0.0 0.0 0.00 0.00 0.00 59 1011.8
20260902083126 78 85 0.0 3.0 0.00 0.00 0.00 58 1011.8
20260902082625 78 85 0.0 3.0 0.00 0.00 0.00 58 1011.8
20260902082129 78 38 0.0 3.0 0.00 0.00 0.00 59 1011.7
20260902081629 78 49 1.0 4.0 0.00 0.00 0.00 59 1011.7
20260902081129 78 37 1.0 4.0 0.00 0.00 0.00 60 1011.7
20260902080839 78 21 0.0 0.0 0.00 0.00 0.00 59 1011.7
20260902080719 78 37 0.0 1.0 0.00 0.00 0.00 59 1011.7
20260902075631 78 30 0.0 1.0 0.00 0.00 0.00 59 1011.8
20260902075353 78 39 0.0 1.0 0.00 0.00 0.00 58 1011.7
20260902074628 78 51 0.0 1.0 0.00 0.00 0.00 59 1011.7
20260902074608 78 35 0.0 3.0 0.00 0.00 0.00 60 1011.7
20260902073628 78 41 0.0 3.0 0.00 0.00 0.00 61 1011.7
20260902073131 78 45 0.0 3.0 0.00 0.00 0.00 62 1011.8
20260902072631 78 39 0.0 3.0 0.00 0.00 0.00 64 1011.7
20260902072128 78 32 1.0 3.0 0.00 0.00 0.00 63 1011.8
20260902071628 78 28 0.0 1.0 0.00 0.00 0.00 64 1011.8
20260902071127 78 21 0.0 1.0 0.00 0.00 0.00 64 1011.7
20260902070628 77 16 0.0 0.0 0.00 0.00 0.00 64 1011.8
20260902070124 77 52 0.0 0.0 0.00 0.00 0.00 65 1011.8
20260902065624 77 87 0.0 0.0 0.00 0.00 0.00 65 1011.7
20260902065127 77 87 0.0 0.0 0.00 0.00 0.00 64 1011.7
20260902064627 78 87 0.0 0.0 0.00 0.00 0.00 64 1011.7
20260902064127 78 87 0.0 0.0 0.00 0.00 0.00 63 1011.6
20260902063627 79 87 0.0 0.0 0.00 0.00 0.00 62 1011.7
20260902063127 79 87 0.0 1.0 0.00 0.00 0.00 61 1011.6
20260902062843 79 79 0.0 1.0 0.00 0.00 0.00 60 1011.6
20260902062123 79 100 0.0 1.0 0.00 0.00 0.00 61 1011.6
20260902062106 79 49 0.0 0.0 0.00 0.00 0.00 62 1011.5
20260902061123 79 49 0.0 1.0 0.00 0.00 0.00 61 1011.5
20260902060626 79 47 0.0 1.0 0.00 0.00 0.00 62 1011.5
20260902060126 79 45 0.0 0.0 0.00 0.00 0.00 62 1011.6
20260902055626 79 55 0.0 2.0 0.00 0.00 0.00 62 1011.6
20260902055126 79 55 0.0 2.0 0.00 0.00 0.00 63 1011.6
20260902054621 79 52 0.0 2.0 0.00 0.00 0.00 63 1011.7
20260902054342 78 47 0.0 1.0 0.00 0.00 0.00 65 1011.7
20260902053623 78 48 0.0 0.0 0.00 0.00 0.00 66 1011.7
20260902053122 77 48 0.0 0.0 0.00 0.00 0.00 67 1011.7
20260902052626 78 48 0.0 0.0 0.00 0.00 0.00 67 1011.7
20260902052125 78 48 0.0 0.0 0.00 0.00 0.00 67 1011.7
20260902051625 77 48 0.0 0.0 0.00 0.00 0.00 67 1011.8
20260902051124 78 48 0.0 0.0 0.00 0.00 0.00 67 1012.0
20260902050625 78 48 0.0 0.0 0.00 0.00 0.00 67 1011.8
20260902050121 78 48 0.0 0.0 0.00 0.00 0.00 65 1011.8
20260902045845 78 48 0.0 0.0 0.00 0.00 0.00 66 1011.8
20260902045121 79 48 0.0 0.0 0.00 0.00 0.00 64 1011.8
20260902044621 79 48 0.0 0.0 0.00 0.00 0.00 63 1011.8
20260902044124 79 48 0.0 0.0 0.00 0.00 0.00 62 1011.7
20260902043624 80 48 0.0 0.0 0.00 0.00 0.00 62 1011.6
20260902043124 81 48 0.0 0.0 0.00 0.00 0.00 59 1011.6
20260902042624 81 48 0.0 0.0 0.00 0.00 0.00 58 1011.6
20260902042124 81 48 0.0 0.0 0.00 0.00 0.00 58 1011.5
20260902041623 81 48 0.0 0.0 0.00 0.00 0.00 59 1011.5
20260902041611 81 48 0.0 0.0 0.00 0.00 0.00 59 1011.5
20260902040623 81 48 0.0 0.0 0.00 0.00 0.00 58 1011.4
20260902040120 81 49 0.0 0.0 0.00 0.00 0.00 58 1011.4
20260902035623 81 30 0.0 0.0 0.00 0.00 0.00 59 1011.4
20260902035123 81 30 0.0 0.0 0.00 0.00 0.00 58 1011.4
20260902034624 81 75 0.0 0.0 0.00 0.00 0.00 59 1011.2
20260902034123 82 75 0.0 0.0 0.00 0.00 0.00 58 1011.1
20260902033622 82 76 0.0 0.0 0.00 0.00 0.00 57 1011.0
20260902033123 82 34 0.0 0.0 0.00 0.00 0.00 57 1010.9
20260902032619 82 34 0.0 0.0 0.00 0.00 0.00 57 1010.8
20260902032119 83 34 0.0 0.0 0.00 0.00 0.00 56 1010.5
20260902031622 83 34 0.0 0.0 0.00 0.00 0.00 54 1010.5
20260902031122 83 34 0.0 0.0 0.00 0.00 0.00 53 1010.3
20260902030621 83 286 0.0 0.0 0.00 0.00 0.00 52 1010.3
20260902030122 84 286 0.0 0.0 0.00 0.00 0.00 50 1010.2
20260902025850 84 286 0.0 1.0 0.00 0.00 0.00 49 1010.1
20260902024849 84 309 0.0 1.0 0.00 0.00 0.00 49 1009.9
20260902024124 84 313 0.0 0.0 0.00 0.00 0.00 49 1009.8
20260902023621 85 314 0.0 0.0 0.00 0.00 0.00 48 1009.7
20260902023122 85 282 0.0 0.0 0.00 0.00 0.00 48 1009.7
20260902022621 85 281 0.0 3.0 0.00 0.00 0.00 47 1009.8
20260902022121 85 252 0.0 3.0 0.00 0.00 0.00 46 1009.6
20260902021621 85 278 0.0 3.0 0.00 0.00 0.00 47 1009.5
20260902021120 86 282 0.0 5.0 0.00 0.00 0.00 47 1009.4
20260902021108 86 299 0.0 5.0 0.00 0.00 0.00 46 1009.2
20260902020121 86 266 0.0 6.0 0.00 0.00 0.00 47 1009.2
20260902015617 86 255 0.0 9.0 0.00 0.00 0.00 46 1009.2
20260902015118 87 283 2.0 9.0 0.00 0.00 0.00 46 1009.1
20260902014620 87 316 2.0 6.0 0.00 0.00 0.00 46 1009.1
20260902014340 87 252 2.0 6.0 0.00 0.00 0.00 45 1009.1
20260902013620 88 251 1.0 5.0 0.00 0.00 0.00 45 1009.1
20260902013120 88 248 0.0 4.0 0.00 0.00 0.00 45 1009.0
20260902012620 89 290 0.0 5.0 0.00 0.00 0.00 45 1009.1
20260902012116 89 288 0.0 5.0 0.00 0.00 0.00 44 1009.0
20260902011616 89 258 1.0 5.0 0.00 0.00 0.00 44 1009.0
20260902011116 89 296 0.0 7.0 0.00 0.00 0.00 44 1009.0
20260902010619 89 257 2.0 7.0 0.00 0.00 0.00 44 1009.0
20260902010120 89 271 2.0 7.0 0.00 0.00 0.00 44 1008.9
20260902005845 90 299 2.0 7.0 0.00 0.00 0.00 44 1008.9
20260902005119 90 289 3.0 9.0 0.00 0.00 0.00 44 1008.9
20260902004619 90 276 3.0 9.0 0.00 0.00 0.00 44 1008.9
20260902004340 90 307 3.0 9.0 0.00 0.00 0.00 44 1009.0
20260902003618 90 305 2.0 11.0 0.00 0.00 0.00 43 1009.0
20260902003119 90 244 4.0 11.0 0.00 0.00 0.00 43 1009.0
20260902002617 90 285 5.0 11.0 0.00 0.00 0.00 43 1009.1
20260902002118 91 250 5.0 10.0 0.00 0.00 0.00 42 1009.1
20260902001619 91 244 5.0 10.0 0.00 0.00 0.00 43 1009.1
20260902001118 91 251 4.0 11.0 0.00 0.00 0.00 43 1009.1
20260902000618 91 247 3.0 11.0 0.00 0.00 0.00 43 1009.1
20260902000117 91 278 4.0 12.0 0.00 0.00 0.00 42 1009.2
20260901235617 91 295 6.0 12.0 0.00 0.00 0.00 42 1009.2
20260901235114 92 257 5.0 12.0 0.00 0.00 0.00 42 1009.2
20260901234615 91 257 4.0 13.0 0.00 0.00 0.00 41 1009.4
20260901234329 92 278 5.0 13.0 0.00 0.00 0.00 41 1009.5
20260901234216 92 286 4.0 13.0 0.00 0.00 0.00 41 1009.4
20260901233558 91 268 5.0 11.0 0.00 0.00 0.00 41 1009.6
20260901232617 92 278 4.0 11.0 0.00 0.00 0.00 40 1009.6
20260901232336 92 275 4.0 11.0 0.00 0.00 0.00 40 1009.7
20260901231617 92 320 4.0 11.0 0.00 0.00 0.00 40 1009.7
20260901231608 93 216 3.0 10.0 0.00 0.00 0.00 39 1009.7
20260901230617 92 212 2.0 10.0 0.00 0.00 0.00 40 1009.7
20260901230116 92 234 3.0 10.0 0.00 0.00 0.00 40 1009.7
20260901225617 92 252 4.0 10.0 0.00 0.00 0.00 39 1009.8
20260901225117 93 271 2.0 6.0 0.00 0.00 0.00 39 1009.8
20260901224616 92 259 3.0 9.0 0.00 0.00 0.00 39 1009.9
20260901224116 92 250 4.0 11.0 0.00 0.00 0.00 39 1009.9
20260901223615 92 268 3.0 11.0 0.00 0.00 0.00 40 1010.0
20260901223116 92 333 5.0 9.0 0.00 0.00 0.00 40 1010.0
20260901222616 92 265 4.0 9.0 0.00 0.00 0.00 40 1010.0
20260901222115 92 313 6.0 9.0 0.00 0.00 0.00 39 1010.2
20260901221615 92 251 3.0 9.0 0.00 0.00 0.00 38 1010.2
20260901221115 93 241 2.0 9.0 0.00 0.00 0.00 38 1010.2
20260901220615 92 207 1.0 11.0 0.00 0.00 0.00 38 1010.3
20260901220116 91 317 5.0 11.0 0.00 0.00 0.00 39 1010.3
20260901215839 91 269 3.0 11.0 0.00 0.00 0.00 40 1010.4
20260901215115 91 292 4.0 10.0 0.00 0.00 0.00 39 1010.4
20260901214611 91 266 5.0 10.0 0.00 0.00 0.00 39 1010.5
20260901214111 91 231 4.0 9.0 0.00 0.00 0.00 41 1010.7
20260901213612 91 298 5.0 9.0 0.00 0.00 0.00 39 1010.7
20260901213114 92 289 2.0 9.0 0.00 0.00 0.00 38 1010.8
20260901212837 92 257 5.0 9.0 0.00 0.00 0.00 39 1010.9
20260901212114 92 224 4.0 7.0 0.00 0.00 0.00 39 1010.9
20260901211614 92 271 3.0 7.0 0.00 0.00 0.00 40 1011.1
20260901211110 92 257 4.0 9.0 0.00 0.00 0.00 40 1011.1
20260901210610 91 244 3.0 9.0 0.00 0.01 0.00 41 1011.1
20260901210110 91 228 0.0 11.0 0.00 0.01 0.00 42 1011.1
20260901205610 91 268 5.0 11.0 0.00 0.02 0.00 41 1011.2
20260901205341 92 258 4.0 7.0 0.00 0.02 0.00 40 1011.3
20260901204613 93 286 2.0 5.0 0.00 0.02 0.00 40 1011.4
20260901204113 93 152 1.0 6.0 0.00 0.03 0.00 37 1011.5
20260901203832 92 140 3.0 7.0 0.00 0.03 0.00 38 1011.6
20260901203334 92 199 1.0 7.0 0.00 0.03 0.00 39 1011.7
20260901202613 92 276 3.0 7.0 0.00 0.04 0.00 39 1011.7
20260901202112 92 210 0.0 5.0 0.00 0.04 0.00 39 1011.7
20260901201832 91 247 0.0 5.0 0.00 0.05 0.00 42 1011.8
20260901201334 91 238 0.0 5.0 0.00 0.07 0.00 39 1012.0
20260901200613 90 161 0.0 6.0 0.00 0.09 0.00 40 1012.0
20260901200112 89 309 3.0 6.0 0.00 0.10 0.00 41 1012.0
20260901195612 89 259 2.0 6.0 0.00 0.12 0.00 42 1012.0
20260901195112 89 275 4.0 6.0 0.00 0.13 0.00 42 1012.0
20260901194616 89 68 3.0 7.0 0.00 0.14 0.00 40 1012.1
20260901194112 89 274 1.0 7.0 0.00 0.15 0.00 40 1012.2
20260901193611 90 226 2.0 6.0 0.00 0.16 0.00 42 1012.3
20260901193111 90 285 0.0 5.0 0.00 0.16 0.00 42 1012.4
20260901192612 90 298 0.0 5.0 0.00 0.17 0.00 39 1012.4
20260901192334 90 338 2.0 5.0 0.00 0.19 0.00 41 1012.5
20260901191611 89 30 0.0 3.0 0.00 0.21 0.00 40 1012.5
20260901191111 89 307 0.0 6.0 0.00 0.22 0.00 39 1012.5
20260901190611 89 240 3.0 6.0 0.00 0.23 0.00 41 1012.6
20260901190111 91 303 2.0 6.0 0.00 0.26 0.00 40 1012.6
20260901190100 90 245 0.0 6.0 0.00 0.36 0.00 41 1012.7
20260901185110 90 230 2.0 6.0 0.00 0.38 0.00 40 1012.7
20260901184611 89 285 0.0 4.0 0.00 0.39 0.00 42 1012.7
20260901184111 88 340 0.0 3.0 0.00 0.40 0.00 42 1012.7
20260901183611 89 17 1.0 4.0 0.00 0.41 0.00 42 1012.8
20260901183111 90 243 1.0 4.0 0.00 0.45 0.00 40 1012.9
20260901182610 90 176 1.0 4.0 0.00 0.45 0.00 40 1012.9
20260901182332 89 138 1.0 4.0 0.00 0.45 0.00 41 1012.9
20260901181610 88 182 2.0 5.0 0.00 0.45 0.00 43 1012.9
20260901181110 88 279 3.0 5.0 0.00 0.45 0.00 42 1012.9
20260901180611 89 223 1.0 5.0 0.00 0.45 0.00 41 1012.9
20260901180335 89 125 2.0 5.0 0.00 0.45 0.00 41 1013.0
20260901175830 89 178 0.0 5.0 0.00 0.45 0.00 43 1013.1
20260901175110 89 155 2.0 5.0 0.00 0.45 0.00 42 1013.1
20260901174831 88 200 2.0 5.0 0.00 0.45 0.00 44 1013.1
20260901174109 88 235 0.0 0.0 0.00 0.45 0.00 44 1013.1
20260901173609 86 305 0.0 1.0 0.00 0.45 0.00 46 1013.0
20260901173109 86 334 0.0 1.0 0.00 0.45 0.00 46 1013.3
20260901172609 86 20 0.0 4.0 0.00 0.45 0.00 45 1013.3
20260901172546 86 275 1.0 4.0 0.00 0.45 0.00 44 1013.1
20260901171608 86 293 1.0 3.0 0.00 0.45 0.00 44 1013.3
20260901171336 86 172 0.0 4.0 0.00 0.45 0.00 44 1013.3
20260901170608 87 288 1.0 4.0 0.00 0.45 0.00 44 1013.1
20260901170331 87 228 1.0 4.0 0.00 0.45 0.00 43 1013.1
20260901165608 87 213 2.0 4.0 0.00 0.45 0.00 42 1013.1
20260901165325 87 193 0.0 3.0 0.00 0.45 0.00 45 1013.1
20260901164607 86 151 0.0 3.0 0.00 0.45 0.00 47 1013.1
20260901164108 85 202 0.0 2.0 0.00 0.45 0.00 50 1013.1
20260901163607 85 268 0.0 2.0 0.00 0.45 0.00 50 1013.1
20260901163107 85 268 0.0 2.0 0.00 0.45 0.00 50 1013.1
20260901162608 85 183 0.0 0.0 0.00 0.45 0.00 51 1013.1
20260901162107 84 185 0.0 1.0 0.00 0.45 0.00 54 1013.1
20260901161608 83 117 0.0 1.0 0.00 0.45 0.00 54 1013.1
20260901161330 83 90 0.0 0.0 0.00 0.45 0.00 56 1013.1
20260901160607 83 90 0.0 2.0 0.00 0.45 0.00 56 1013.3
20260901160107 82 154 0.0 2.0 0.00 0.45 0.00 57 1013.1
20260901155606 82 154 0.0 2.0 0.00 0.45 0.00 58 1013.3
20260901155107 81 83 0.0 1.0 0.00 0.45 0.00 59 1013.1
20260901155053 81 128 0.0 1.0 0.00 0.45 0.00 60 1013.1
20260901154106 81 154 0.0 2.0 0.00 0.45 0.00 60 1013.1
20260901153607 80 154 1.0 2.0 0.00 0.45 0.00 60 1013.3
20260901153337 79 155 0.0 1.0 0.00 0.45 0.00 64 1013.1
20260901152606 78 82 0.0 1.0 0.00 0.45 0.00 64 1013.3
20260901152106 78 131 0.0 1.0 0.00 0.45 0.00 65 1013.1
20260901151826 78 102 0.0 0.0 0.00 0.45 0.00 65 1013.3
20260901151105 78 102 0.0 0.0 0.00 0.45 0.00 64 1013.1
20260901150606 78 221 0.0 0.0 0.00 0.45 0.00 64 1013.1
20260901150105 78 97 0.0 0.0 0.00 0.45 0.00 66 1013.1
20260901145605 77 97 0.0 0.0 0.00 0.45 0.00 68 1013.1
20260901145105 76 96 0.0 0.0 0.00 0.45 0.00 69 1013.3
20260901144604 76 97 0.0 0.0 0.00 0.45 0.00 70 1013.1
20260901144105 75 100 0.0 0.0 0.00 0.45 0.00 72 1013.3
20260901143605 74 100 0.0 0.0 0.00 0.45 0.00 72 1013.1
20260901143104 74 90 0.0 0.0 0.00 0.45 0.00 73 1013.1
20260901142605 74 120 0.0 0.0 0.00 0.45 0.00 74 1013.1
20260901142314 73 82 0.0 0.0 0.00 0.45 0.00 77 1013.0
20260901142158 73 82 0.0 0.0 0.00 0.45 0.00 76 1013.1
20260901141104 72 79 0.0 0.0 0.00 0.45 0.00 79 1013.0
20260901140604 72 103 0.0 0.0 0.00 0.45 0.00 79 1013.0
20260901140104 72 106 0.0 0.0 0.00 0.45 0.00 81 1012.9
20260901135603 71 106 0.0 0.0 0.00 0.45 0.00 82 1012.9
20260901135104 71 106 0.0 0.0 0.00 0.45 0.00 83 1012.9
20260901134603 70 107 0.0 1.0 0.00 0.45 0.00 85 1012.9
20260901134104 69 107 0.0 1.0 0.00 0.45 0.00 87 1012.9
20260901133603 69 124 0.0 0.0 0.00 0.45 0.00 89 1012.9
20260901133104 68 124 0.0 0.0 0.00 0.45 0.00 90 1012.8
20260901132603 67 124 0.0 0.0 0.00 0.45 0.00 90 1012.7
20260901132103 67 124 0.0 0.0 0.00 0.45 0.00 89 1012.7
20260901131603 67 124 0.0 0.0 0.00 0.45 0.00 89 1012.5
20260901131103 68 124 0.0 0.0 0.00 0.46 0.00 88 1012.4
20260901130602 68 124 0.0 0.0 0.00 0.46 0.00 87 1012.4
20260901125603 68 124 0.0 0.0 0.00 0.48 0.00 86 1012.2
20260901125102 69 125 0.0 0.0 0.00 0.48 0.00 86 1012.2
20260901124602 69 8 0.0 0.0 0.00 0.51 0.00 86 1012.1
20260901124102 69 8 0.0 0.0 0.00 0.52 0.00 87 1012.0
20260901123601 68 8 0.0 0.0 0.00 0.52 0.00 87 1011.8
20260901123102 69 8 0.0 0.0 0.00 0.53 0.00 87 1011.8
20260901122602 69 8 0.0 0.0 0.00 0.53 0.00 86 1011.7
20260901122101 69 8 0.0 0.0 0.00 0.54 0.00 86 1011.7
20260901121601 69 8 0.0 0.0 0.00 0.54 0.00 85 1011.7
20260901121102 69 8 0.0 1.0 0.00 0.54 0.00 84 1011.7
20260901120601 69 32 0.0 3.0 0.00 0.54 0.00 84 1011.7
20260901115601 69 35 0.0 0.0 0.00 0.54 0.00 86 1011.7
20260901115102 69 37 0.0 0.0 0.00 0.54 0.00 86 1011.7
20260901114601 69 39 0.0 0.0 0.00 0.57 0.00 87 1011.7
20260901114101 68 39 0.0 0.0 0.00 0.75 0.00 90 1011.8
20260901113601 67 321 0.0 0.0 0.00 0.86 0.00 90 1011.8
20260901113100 68 321 0.0 0.0 0.00 0.89 0.00 90 1012.0
20260901112600 68 323 0.0 0.0 0.00 0.89 0.00 89 1011.8
20260901112100 68 321 0.0 0.0 0.00 0.89 0.00 89 1011.8
20260901111600 68 323 0.0 0.0 0.00 0.89 0.00 89 1011.8
20260901111100 68 321 0.0 0.0 0.00 0.89 0.00 90 1012.0
20260901110821 68 321 0.0 0.0 0.00 0.89 0.00 90 1012.0
20260901110059 68 323 0.0 0.0 0.00 0.89 0.00 89 1011.8
20260901105559 68 321 0.0 0.0 0.00 0.89 0.00 89 1011.8
20260901105059 68 321 0.0 0.0 0.00 0.89 0.00 89 1011.7
20260901104822 68 321 0.0 0.0 0.00 0.89 0.00 89 1011.8
20260901104059 68 323 0.0 0.0 0.00 0.89 0.00 89 1011.7
20260901103600 68 321 0.0 0.0 0.00 0.89 0.00 89 1011.7
20260901103059 68 321 0.0 0.0 0.00 0.89 0.00 89 1011.6
20260901102559 68 321 0.0 0.0 0.00 0.89 0.00 90 1011.6
20260901102059 68 321 0.0 0.0 0.00 0.89 0.00 90 1011.5
20260901101558 68 321 0.0 0.0 0.00 0.89 0.00 90 1011.5
20260901101319 68 321 0.0 0.0 0.00 0.89 0.00 90 1011.5
20260901100559 68 321 0.0 0.0 0.00 0.89 0.00 90 1011.5
20260901100058 68 323 0.0 0.0 0.00 0.89 0.00 90 1011.6
20260901095558 68 321 0.0 0.0 0.00 0.89 0.00 89 1011.5
20260901095059 68 321 0.0 0.0 0.00 0.89 0.00 89 1011.5